Location: Alvediston
(51.0078°N, 2.0364°W)
Time: 18:26:19
(UTC+00:00)

Gbstr 26 Del rocket - Pass Details

Date: 27 February 2020
Orbit: 492 x 1264 km, 51.8° (Epoch: 27 March)

Event Time Altitude Azimuth Distance (km) Brightness Sun altitude
Rises 18:53:11 0° 227° (SW) 2,636 7.1 -11.5°
Reaches altitude 10° 18:55:18 10° 221° (SW) 1,806 6.0 -11.9°
Maximum altitude 18:59:10 44° 148° (SSE) 835 3.5 -12.5°
Enters shadow 19:02:08 19° 85° (E) 1,548 4.5 -12.9°
